Location: Tr�vern
(48.0333°N, 4.6000°W)
Time: 08:17:28
(UTC+00:00)

MSX - Pass Details

Date: 14 July 2020
Orbit: 894 x 906 km, 98.8° (Epoch: 04 August)

Event Time Altitude Azimuth Distance (km) Brightness Sun altitude
Rises 03:41:24 0° 16° (NNE) 3,521 8.1 -7.6°
Reaches altitude 10° 03:43:51 10° 20° (NNE) 2,577 7.4 -7.3°
Maximum altitude 03:49:33 65° 102° (ESE) 984 4.3 -6.6°
Drops below altitude 10° 03:55:14 10° 184° (S) 2,563 5.8 -5.9°
Sets 03:57:39 0° 187° (S) 3,501 6.5 -5.6°
